This demonstration page uses our WeatherBlox Daily Observations layout. Learn more.

Left ArrowRight Arrow

41.55636, -103.73856

Hourly Observations for February 1, 2018

Temp ( °F °C ) Dew Point ( °F °C ) Humidity (%) Winds ( mph kmh ) Pressure ( in mb ) Visibility ( mi km ) Precip ( " mm )
12:53 am 00:53 Cloudy 30 -1.1 21 -6.1 69 69 N 12 19 30.17 1022 10 16 N/A
1:53 am 01:53 Cloudy 29 -1.7 21 -6.1 72 72 N 5 7 30.18 1022 10 16 N/A
2:53 am 02:53 Cloudy 29 -1.7 20 -6.7 69 69 N 7 11 30.19 1022 10 16 N/A
3:53 am 03:53 Cloudy 28 -2.2 21 -6.1 75 75 WNW 3 6 30.19 1023 10 16 N/A
4:53 am 04:53 Cloudy 28 -2.2 21 -6.1 75 75 N 6 9 30.21 1023 10 16 N/A
5:53 am 05:53 Cloudy with Light Snow 26 -3.3 23 -5 88 88 N 9 15 30.24 1024 4 6 N/A
6:53 am 06:53 Cloudy 26 -3.3 22 -5.6 84 84 WNW 3 6 30.27 1025 10 16 N/A
7:53 am 07:53 Cloudy 26 -3.3 23 -5 88 88 W 3 6 30.30 1026 10 16 N/A
8:53 am 08:53 Cloudy with Light Snow 27 -2.8 23 -5 85 85 WNW 5 7 30.34 1027 4 6 N/A
9:09 am 09:09 Cloudy with Light Snow 27 -2.8 22 -5.6 81 81 VRB 3 6 30.39 1029 2 3 N/A
9:22 am 09:22 Cloudy with Light Snow 27 -3 23 -5 86 86 N N/A 30.45 1031 3 5 N/A
9:36 am 09:36 Cloudy with Light Snow 27 -3 23 -5 86 86 N N/A 30.45 1031 4 6 N/A
9:53 am 09:53 Cloudy with Light Snow 27 -2.8 23 -5 85 85 N N/A 30.35 1028 5 8 N/A
10:35 am 10:35 Cloudy 28 -2.2 24 -4.4 85 85 N N/A 30.42 1030 10 16 N/A
10:45 am 10:45 Cloudy 29 -1.7 24 -4.4 82 82 N N/A 30.42 1030 8 13 N/A
10:53 am 10:53 Cloudy 29 -1.7 24 -4.4 82 82 N N/A 30.36 1028 9 14 N/A
11:07 am 11:07 Cloudy 29 -1.7 24 -4.4 82 82 N N/A 30.42 1030 10 16 N/A
11:20 am 11:20 Cloudy 30 -1 25 -4 80 80 NW 5 7 30.39 1029 10 16 N/A
11:39 am 11:39 Cloudy 31 -0.6 24 -4.4 76 76 W 6 9 30.39 1029 10 16 N/A
11:53 am 11:53 Cloudy 32 undefined 24 -4.4 73 73 W 6 9 30.34 1028 10 16 N/A
12:21 pm 12:21 Mostly Cloudy 33 0.6 24 -4.4 70 70 VRB 5 7 30.39 1029 10 16 N/A
12:37 pm 12:37 Partly Cloudy 32 undefined 23 -5 69 69 WNW 7 11 30.36 1028 10 16 N/A
12:53 pm 12:53 Sunny 32 undefined 23 -5 69 69 W 7 11 30.32 1027 10 16 N/A
1:53 pm 13:53 Mostly Sunny 35 1.7 22 -5.6 59 59 W 10 17 30.30 1026 10 16 N/A
2:53 pm 14:53 Sunny 36 2.2 20 -6.7 52 52 W 9 15 30.30 1026 10 16 N/A
3:53 pm 15:53 Sunny 35 1.7 20 -6.7 54 54 N N/A 30.31 1026 10 16 N/A
4:53 pm 16:53 Sunny 34 1.1 21 -6.1 59 59 N N/A 30.31 1027 10 16 N/A
5:53 pm 17:53 Mostly Cloudy 29 -1.7 25 -3.9 85 85 E 8 13 30.33 1027 10 16 N/A
6:53 pm 18:53 Cloudy 29 -1.7 26 -3.3 89 89 ESE 5 7 30.35 1028 10 16 N/A
7:53 pm 19:53 Cloudy 30 -1.1 24 -4.4 79 79 S 6 9 30.34 1027 10 16 N/A
8:53 pm 20:53 Cloudy 30 -1.1 23 -5 75 75 SSW 12 19 30.34 1027 10 16 N/A
9:53 pm 21:53 Partly Cloudy 29 -1.7 23 -5 78 78 SW 6 9 30.34 1028 10 16 N/A
10:53 pm 22:53 Clear 29 -1.7 22 -5.6 75 75 S 3 6 30.33 1027 10 16 N/A
11:53 pm 23:53 Clear 30 -1.1 21 -6.1 69 69 S 6 9 30.30 1026 10 16 N/A

Powered by AerisWeather